Location: Cosy Dell
(34.2789°N, 117.4537°W)
Time: 11:23:01
(UTC+00:00)

Cosmos 1833 Rocket - Pass Details

Date: 14 July 2020
Orbit: 832 x 840 km, 71.0° (Epoch: 09 August)

Event Time Altitude Azimuth Distance (km) Brightness Sun altitude
Exits shadow 10:55:12 15° 283° (WNW) 2,116 4.5 -19.7°
Maximum altitude 10:56:54 17° 304° (NW) 2,008 4.5 -19.5°
Drops below altitude 10° 11:00:25 10° 343° (NNW) 2,446 5.4 -19.0°
Sets 11:03:48 0° 4° (N) 3,386 6.6 -18.5°
